Location: Mason Neck State Park
(38.6428°N, 77.1981°W)
Time: 01:15:14
(UTC-04:00)

ISS - Visible Passes

Search period start: 30 April 2016 00:00
Search period end: 10 May 2016 00:00
Orbit: 402 x 405 km, 51.6° (Epoch: 29 April)

Date Brightness Start Highest point End Pass type
(mag) Time Alt. Az. Time Alt. Az. Time Alt. Az.
05 May -0.6 05:34:50 10° SSE 05:36:24 13° SE 05:37:59 10° E visible
07 May -1.9 05:24:37 10° SSW 05:27:34 32° SE 05:30:31 10° ENE visible
08 May -0.9 04:33:35 12° SSE 04:35:12 16° SE 04:37:19 10° E visible
09 May -3.3 05:15:53 12° SW 05:18:49 87° SE 05:22:06 10° NE visible
